TimeCDT,TemperatureF,Dew PointF,Humidity,Sea Level PressureIn,VisibilityMPH,Wind Direction,Wind SpeedMPH,Gust SpeedMPH,PrecipitationIn,Events,Conditions,WindDirDegrees,DateUTC
12:26 AM,62.6,60.8,94,30.06,10.0,NW,16.1,24.2,N/A,,Mostly Cloudy,320,2013-07-14 05:26:00
12:35 AM,62.6,59.0,88,30.06,10.0,NNW,16.1,23.0,N/A,,Mostly Cloudy,330,2013-07-14 05:35:00
12:54 AM,61.0,57.9,90,30.05,10.0,NNW,18.4,21.9,N/A,,Overcast,330,2013-07-14 05:54:00
1:54 AM,60.1,57.0,90,30.06,10.0,NW,15.0,24.2,N/A,,Overcast,310,2013-07-14 06:54:00
2:01 AM,60.8,57.2,88,30.08,10.0,NW,16.1,-,N/A,,Overcast,310,2013-07-14 07:01:00
2:54 AM,60.1,57.0,90,30.09,10.0,NW,12.7,-,N/A,,Overcast,310,2013-07-14 07:54:00
3:54 AM,59.0,55.0,87,30.12,10.0,NW,12.7,19.6,N/A,,Overcast,320,2013-07-14 08:54:00
4:54 AM,57.9,54.0,87,30.13,10.0,NNW,13.8,-,N/A,,Overcast,330,2013-07-14 09:54:00
5:54 AM,57.9,54.0,87,30.15,10.0,NNW,13.8,-,N/A,,Overcast,330,2013-07-14 10:54:00
6:39 AM,57.2,53.6,88,30.18,10.0,North,13.8,19.6,N/A,,Mostly Cloudy,350,2013-07-14 11:39:00
6:54 AM,57.9,54.0,87,30.17,10.0,North,15.0,20.7,N/A,,Scattered Clouds,350,2013-07-14 11:54:00
7:30 AM,57.2,53.6,88,30.19,10.0,NNW,16.1,-,N/A,,Mostly Cloudy,340,2013-07-14 12:30:00
7:54 AM,59.0,54.0,83,30.19,10.0,NNW,12.7,-,N/A,,Overcast,340,2013-07-14 12:54:00
8:54 AM,60.1,54.0,80,30.23,10.0,NNW,12.7,-,N/A,,Overcast,340,2013-07-14 13:54:00
9:54 AM,61.0,54.0,78,30.26,10.0,North,10.4,-,N/A,,Overcast,350,2013-07-14 14:54:00
10:21 AM,62.6,53.6,72,30.25,10.0,North,8.1,-,N/A,,Overcast,350,2013-07-14 15:21:00
10:54 AM,63.0,55.0,75,30.24,10.0,NNE,8.1,-,N/A,,Overcast,20,2013-07-14 15:54:00
11:54 AM,62.1,54.0,75,30.26,10.0,North,6.9,-,N/A,,Overcast,10,2013-07-14 16:54:00
12:54 PM,64.9,55.0,70,30.24,10.0,NNE,6.9,-,N/A,,Mostly Cloudy,20,2013-07-14 17:54:00
1:54 PM,68.0,55.0,63,30.25,10.0,NNE,6.9,-,N/A,,Overcast,30,2013-07-14 18:54:00
2:54 PM,70.0,55.0,59,30.25,10.0,NNW,8.1,-,N/A,,Mostly Cloudy,330,2013-07-14 19:54:00
3:54 PM,72.0,55.0,55,30.24,10.0,NNW,4.6,-,N/A,,Mostly Cloudy,340,2013-07-14 20:54:00
4:54 PM,70.0,53.1,55,30.24,10.0,WNW,3.5,-,N/A,,Scattered Clouds,290,2013-07-14 21:54:00
5:54 PM,72.0,54.0,53,30.22,10.0,NNE,4.6,-,N/A,,Clear,20,2013-07-14 22:54:00
6:54 PM,70.0,55.0,59,30.21,10.0,North,5.8,-,N/A,,Partly Cloudy,360,2013-07-14 23:54:00
7:54 PM,68.0,55.9,65,30.21,10.0,NNE,6.9,-,N/A,,Mostly Cloudy,20,2013-07-15 00:54:00
8:54 PM,64.9,55.9,73,30.21,10.0,North,8.1,-,N/A,,Clear,10,2013-07-15 01:54:00
9:54 PM,62.1,55.9,80,30.21,10.0,NNE,3.5,-,N/A,,Scattered Clouds,30,2013-07-15 02:54:00
10:54 PM,62.1,57.0,84,30.22,10.0,Calm,Calm,-,N/A,,Mostly Cloudy,0,2013-07-15 03:54:00
11:54 PM,57.9,55.0,90,30.22,10.0,NNE,3.5,-,N/A,,Partly Cloudy,20,2013-07-15 04:54:00